Vertical_Velocity
-2 -0 3 2 -1 -1 5 5 -2 -0 -1 -4 -2 0 -0 5 0 1 -4 -3 2 1 -4 -2 -3 -2 -0 1 3 5 1 -0 -1 1 -0 -1 1 -1 2 -1 -1 -1 1 -0 -0 1 1 0 0
-1 -1 2 4 -5 -1 -7 -5 -6 -1 0 -1 1 3 2 0 1 -0 -1 -2 5 -3 -2 -1 -3 -2 -1 -2 -0 1 3 1 0 1 -0 2 -2 0 -1 -1 -1 -3 -0 2 1 -0 1 -1 1
2 0 -1 3 -0 -6 2 0 -14 -4 5 -3 -2 4 1 1 1 2 2 -0 3 -4 -0 -1 -1 -2 -1 -1 1 1 2 -0 0 -2 2 -1 1 1 -0 1 3 1 2 -0 1 -1 1 0 1
3 -2 -2 -1 1 -3 -5 5 -10 8 3 -2 -4 -2 5 1 1 2 1 0 -3 -1 -1 -0 -3 0 0 0 -2 1 2 3 2 1 1 -2 -3 -1 -0 -1 1 1 -0 1 1 2 1 -1 -1
0 0 -4 3 -1 -2 -2 2 -2 1 2 2 -1 -0 4 4 -0 2 2 -1 1 -1 -2 -1 -2 -3 1 2 -0 0 -1 0 1 1 0 0 -1 -2 -3 -1 -0 -0 -1 -0 -2 -3 -2 -1 -2
-1 -1 -2 4 2 -1 -4 -4 -9 -4 4 -1 1 7 6 -2 0 -3 1 -1 1 0 -1 -1 -2 -2 -1 -0 -1 -3 0 1 1 0 1 1 1 -0 2 1 -1 -2 -2 -2 -3 -2 -1 -0 -1
-3 -3 2 7 4 -2 1 -3 -9 -9 8 -6 -2 12 7 5 -1 2 -3 1 1 1 0 -1 -0 -3 -0 0 0 1 -1 -1 0 1 1 0 -1 -0 1 1 1 1 1 0 -0 -1 -0 1 -1
-3 -7 4 3 2 6 -2 -5 -8 -8 -4 4 -3 -4 23 9 1 3 -2 1 0 0 1 1 -0 -1 -1 -0 -0 -1 -0 -1 -2 -0 1 1 1 -1 -1 -2 -2 -1 -2 -1 -1 -0 3 0 1
-10 -3 5 16 0 -0 -1 -4 -1 -9 -9 -1 2 -2 -13 15 4 4 2 2 -0 1 0 -1 0 1 1 -0 -0 -2 -2 0 0 -1 -2 -2 -2 -0 -0 1 -0 -1 -1 -1 -2 -1 -2 -2 -2
-5 -3 8 12 0 10 1 3 5 -4 -7 -6 1 -3 -3 9 8 -1 5 3 2 1 -0 -1 -1 -1 -0 2 0 1 1 -1 -2 -2 -0 -2 -2 -1 -1 -2 -1 -1 -1 -0 -1 -1 -2 0 0
-1 9 2 11 1 0 3 -3 2 -1 -9 -5 10 -0 7 5 7 3 -1 4 2 2 1 -1 1 -0 -1 1 1 2 0 0 1 -0 -1 0 -1 1 -1 0 -1 1 1 0 -1 -1 1 -1 -2
-7 3 5 6 6 -6 6 -5 5 -5 -5 8 -23 -10 8 8 3 4 3 -1 2 2 -1 0 -1 1 1 -3 0 0 -1 3 -1 -0 1 -2 1 -0 -1 -1 -1 -0 -1 -0 0 0 -1 -2 0
-6 3 -6 6 4 -11 -1 2 -1 -3 -3 4 -8 -3 -7 7 5 2 2 -0 2 3 1 2 2 4 1 3 -2 -2 -1 1 1 2 -0 3 4 0 0 1 2 -2 -1 -1 0 1 0 -0 -0
-0 -2 1 5 9 -7 3 8 3 -5 0 -18 -26 0 2 2 11 2 5 -1 2 1 1 -4 -0 0 -1 3 2 -2 -8 -1 -4 -0 0 2 -0 2 5 3 -1 1 1 2 1 2 2 3 -2
2 -0 4 5 17 4 -1 3 10 -1 4 -7 -18 -3 2 6 7 5 2 3 -1 3 -0 1 6 -3 2 1 2 2 5 1 1 1 -2 -1 1 0 0 -0 1 1 1 1 0 2 -0 -2 -1
3 3 -6 22 7 16 0 -0 13 -4 3 4 -6 -23 -17 8 6 4 1 8 1 -2 1 3 4 1 -1 3 2 2 0 3 2 1 2 -1 -1 -1 -2 0 -2 -1 -1 -3 -1 -0 -2 -0 0
-4 3 1 4 5 14 7 1 11 1 4 1 3 -13 -18 -3 1 5 2 3 4 -4 -3 -5 -2 -0 -1 -1 0 -1 -1 -2 -0 -1 0 -1 -3 -1 -0 -1 -2 -2 -2 -0 3 -3 -3 1 -0
11 6 4 -0 13 12 10 10 1 3 4 3 -9 0 -4 -4 -0 1 6 7 9 5 3 -1 -0 -0 -2 -2 -1 -1 -2 -2 -2 -1 0 -1 -1 0 -1 -1 -1 -2 -1 1 3 -4 -1 -1 1
1 -5 -3 5 13 -6 10 8 1 19 -2 1 -2 -3 -3 -4 4 6 4 5 9 6 3 2 0 -2 -1 -1 -1 -1 1 -2 -0 -2 -1 -0 -2 0 2 0 -1 -0 0 0 1 -2 -1 0 2
-3 -5 -0 3 8 -7 15 5 1 -6 13 -1 1 -5 -7 -11 -7 -1 4 3 5 2 1 3 1 -1 -1 -3 -2 -2 0 1 1 -1 -1 1 1 1 -0 1 -1 -0 1 2 1 -1 -2 3 1
-3 -1 8 6 1 -19 10 4 -6 -0 1 3 -4 3 -11 -9 -6 -4 -5 3 7 4 2 2 1 1 -1 -0 -0 1 0 -1 -0 -3 -0 -0 -0 1 2 0 -0 0 0 2 1 1 -2 -2 1
-4 4 3 3 0 -4 -4 -24 -8 -5 4 -11 -4 -2 1 -7 3 6 4 5 7 2 -4 3 7 1 -2 -0 -2 -0 3 -0 -1 1 -0 -0 0 1 -0 1 1 -1 -0 0 1 1 1 -0 -3
7 -1 -1 -1 3 1 1 -16 -17 13 -18 -2 1 7 6 7 6 8 14 11 8 -1 -1 8 3 3 2 -0 2 1 2 -2 -1 2 0 0 1 1 -3 1 -0 -0 0 -1 2 2 0 1 1
1 -1 2 3 6 -15 9 -9 -1 -9 6 19 4 4 2 1 16 11 1 -3 9 1 -2 -4 8 -2 0 -1 0 2 1 -5 2 2 1 -0 -0 -1 0 -2 0 0 0 -1 0 2 -1 0 1
-1 4 3 -4 -8 -39 48 32 -26 -14 -3 5 -2 9 5 -1 -0 2 -1 -1 1 7 -0 -0 1 -1 -2 0 1 1 -2 -2 2 1 -0 -2 -0 -1 1 -0 -1 -1 1 -0 2 3 -0 1 -0
-0 3 2 -7 -1 13 13 -37 -57 22 17 11 7 -2 2 1 -2 -2 8 3 1 12 -2 -4 3 -2 0 0 -1 0 -3 -1 2 -1 -2 2 -1 -2 -1 1 1 -1 3 -2 1 1 0 2 1
15 -25 25 -5 1 -7 3 -8 -17 -4 1 15 15 14 -2 1 -0 4 0 -4 2 7 5 2 -1 -6 -3 0 -3 1 4 1 -1 -1 -1 3 1 0 1 -0 -1 1 1 2 2 0 -0 1 2
4 13 4 -10 -14 -6 -7 -12 -42 5 4 11 6 -1 -4 2 -2 6 4 1 3 1 1 -6 -0 -0 -5 -2 1 1 3 3 4 1 -1 1 1 1 1 2 1 4 -1 1 1 -0 0 0 0
13 10 -4 -11 -8 -5 -1 -53 16 10 8 14 19 25 -5 -0 -4 -1 5 13 14 6 -4 -4 -1 2 3 1 1 3 0 2 4 1 -0 1 -0 -1 2 2 -3 2 2 3 1 1 -2 -0 1
6 -3 -2 -10 3 -3 -27 -11 14 19 17 27 27 25 23 -9 -15 -6 -9 -8 -5 -2 5 2 4 4 3 -1 4 2 -2 2 2 0 0 3 0 1 1 3 2 1 2 2 3 0 0 -2 -0
Height
5861 5863 5864 5866 5870 5868 5866 5866 5861 5862 5860 5858 5861 5866 5867 5867 5865 5867 5863 5862 5862 5859 5857 5857 5858 5858 5857 5856 5855 5856 5855 5854 5853 5851 5850 5848 5848 5850 5851 5852 5854 5855 5857 5858 5860 5862 5863 5863 5865
5857 5860 5862 5863 5866 5866 5867 5864 5862 5864 5864 5863 5861 5866 5867 5866 5864 5865 5863 5862 5863 5860 5859 5860 5859 5860 5859 5858 5858 5858 5857 5856 5855 5854 5853 5852 5852 5853 5854 5855 5855 5857 5858 5860 5860 5862 5864 5866 5866
5853 5856 5858 5860 5861 5864 5865 5865 5864 5867 5868 5866 5861 5865 5866 5866 5866 5864 5864 5862 5862 5860 5861 5861 5860 5861 5861 5861 5860 5860 5859 5859 5857 5857 5857 5857 5856 5856 5857 5857 5857 5858 5859 5861 5862 5862 5864 5865 5865
5850 5853 5855 5856 5859 5861 5862 5865 5862 5866 5866 5865 5860 5865 5868 5867 5866 5866 5864 5863 5863 5861 5862 5862 5863 5863 5863 5864 5863 5863 5862 5861 5860 5860 5860 5860 5861 5861 5860 5860 5860 5861 5862 5862 5864 5865 5866 5866 5866
5845 5848 5849 5853 5856 5856 5858 5860 5860 5859 5861 5861 5861 5866 5869 5868 5867 5866 5865 5864 5863 5863 5863 5864 5864 5865 5865 5865 5866 5865 5865 5864 5864 5864 5863 5862 5863 5864 5865 5865 5865 5864 5864 5865 5866 5866 5867 5869 5869
5842 5844 5846 5850 5852 5853 5857 5858 5856 5860 5861 5856 5858 5866 5869 5866 5867 5867 5865 5864 5864 5865 5865 5865 5866 5867 5867 5867 5867 5867 5868 5868 5868 5867 5867 5867 5867 5867 5867 5866 5866 5867 5867 5867 5867 5867 5867 5868 5869
5836 5838 5843 5846 5849 5851 5855 5855 5852 5854 5858 5854 5852 5862 5868 5868 5866 5868 5866 5866 5865 5866 5867 5867 5868 5869 5870 5870 5870 5869 5870 5870 5870 5870 5870 5870 5871 5870 5870 5869 5869 5869 5870 5869 5869 5869 5869 5870 5870
5829 5832 5837 5842 5845 5849 5848 5850 5848 5849 5855 5856 5850 5853 5865 5869 5867 5868 5867 5867 5867 5867 5868 5869 5870 5871 5872 5872 5873 5872 5871 5872 5872 5873 5873 5873 5872 5872 5871 5871 5872 5872 5872 5871 5871 5870 5870 5870 5870
5821 5827 5834 5839 5841 5842 5841 5842 5845 5845 5849 5854 5852 5854 5857 5866 5868 5869 5869 5869 5869 5868 5869 5870 5871 5872 5873 5874 5874 5874 5874 5874 5874 5874 5875 5875 5874 5874 5873 5873 5873 5874 5874 5872 5871 5871 5870 5870 5870
5813 5821 5830 5835 5836 5836 5835 5838 5839 5842 5845 5850 5850 5854 5858 5861 5867 5868 5870 5869 5870 5870 5869 5870 5871 5872 5874 5874 5875 5875 5874 5875 5875 5875 5875 5875 5875 5875 5875 5875 5875 5875 5874 5873 5872 5872 5871 5871 5870
5808 5818 5826 5829 5829 5827 5826 5829 5832 5837 5841 5841 5849 5850 5857 5861 5865 5865 5867 5868 5869 5870 5870 5870 5871 5872 5874 5874 5874 5875 5875 5874 5874 5874 5874 5874 5875 5875 5875 5875 5875 5874 5873 5872 5871 5870 5870 5868 5867
5800 5810 5819 5823 5822 5822 5820 5819 5823 5828 5836 5835 5836 5840 5845 5858 5863 5863 5864 5867 5867 5868 5869 5869 5870 5872 5872 5873 5874 5873 5873 5875 5873 5872 5872 5872 5873 5872 5872 5873 5872 5871 5870 5870 5868 5868 5866 5865 5864
5791 5801 5809 5816 5815 5814 5814 5812 5814 5816 5828 5834 5834 5837 5844 5852 5859 5861 5862 5863 5866 5866 5867 5868 5869 5871 5871 5872 5872 5871 5872 5873 5872 5872 5871 5872 5872 5871 5870 5870 5869 5867 5865 5864 5864 5863 5862 5860 5859
5784 5791 5799 5807 5809 5807 5810 5808 5809 5813 5821 5826 5833 5839 5841 5849 5855 5857 5860 5862 5863 5864 5864 5865 5867 5869 5869 5871 5871 5869 5869 5870 5870 5871 5870 5871 5870 5870 5870 5869 5866 5864 5863 5862 5861 5860 5860 5857 5855
5780 5783 5792 5800 5804 5803 5804 5801 5801 5809 5818 5822 5825 5831 5835 5843 5849 5854 5856 5859 5860 5860 5861 5865 5866 5866 5867 5869 5869 5869 5868 5869 5869 5868 5869 5869 5868 5867 5866 5865 5863 5860 5860 5859 5858 5858 5856 5853 5851
5773 5777 5784 5795 5797 5801 5799 5797 5796 5803 5810 5816 5819 5826 5827 5836 5843 5847 5852 5855 5855 5855 5857 5860 5863 5863 5864 5866 5866 5866 5866 5866 5866 5866 5866 5865 5865 5864 5863 5862 5860 5857 5856 5855 5855 5853 5850 5849 5847
5762 5768 5773 5784 5789 5792 5794 5791 5789 5794 5801 5807 5812 5816 5823 5830 5837 5842 5846 5849 5850 5850 5851 5854 5857 5858 5860 5861 5862 5863 5862 5862 5863 5862 5863 5862 5861 5860 5859 5859 5857 5854 5853 5852 5851 5848 5845 5844 5842
5756 5759 5763 5772 5782 5783 5787 5788 5784 5785 5795 5801 5807 5814 5820 5824 5831 5836 5840 5843 5846 5847 5847 5849 5851 5852 5854 5856 5857 5858 5858 5858 5858 5858 5858 5858 5858 5857 5856 5855 5854 5852 5850 5848 5846 5843 5841 5840 5838
5746 5749 5755 5760 5770 5771 5776 5780 5781 5782 5786 5793 5800 5806 5811 5818 5823 5827 5831 5835 5838 5841 5842 5844 5845 5847 5849 5850 5851 5852 5853 5854 5854 5854 5854 5854 5854 5853 5853 5851 5850 5848 5846 5844 5842 5838 5837 5836 5834
5738 5742 5747 5752 5757 5761 5766 5769 5772 5771 5776 5785 5792 5797 5801 5808 5813 5816 5821 5825 5829 5832 5833 5835 5838 5840 5842 5844 5845 5847 5848 5849 5849 5849 5849 5850 5849 5849 5847 5846 5844 5843 5841 5839 5836 5834 5832 5831 5829
5732 5736 5739 5742 5745 5750 5753 5757 5762 5767 5769 5775 5779 5785 5790 5797 5804 5807 5809 5813 5818 5822 5824 5827 5830 5833 5835 5837 5838 5840 5842 5843 5843 5843 5845 5844 5844 5843 5842 5840 5838 5837 5836 5834 5831 5829 5826 5825 5823
5725 5728 5730 5732 5736 5740 5741 5745 5753 5758 5762 5769 5773 5775 5780 5785 5792 5798 5802 5805 5808 5812 5814 5818 5821 5824 5827 5830 5831 5833 5835 5836 5836 5838 5838 5838 5837 5837 5835 5835 5832 5831 5830 5828 5826 5823 5822 5819 5817
5719 5720 5721 5723 5725 5728 5735 5736 5745 5749 5752 5761 5766 5768 5772 5777 5782 5786 5793 5797 5800 5803 5806 5809 5813 5816 5819 5821 5823 5825 5827 5828 5829 5831 5831 5831 5830 5829 5828 5828 5826 5825 5823 5821 5820 5817 5816 5814 5812
5709 5712 5713 5715 5716 5716 5731 5730 5734 5739 5749 5753 5756 5759 5766 5771 5775 5778 5783 5786 5789 5793 5796 5800 5804 5808 5810 5813 5816 5817 5819 5819 5822 5823 5823 5823 5822 5822 5822 5821 5820 5818 5816 5815 5813 5811 5809 5807 5805
5700 5702 5704 5707 5707 5712 5720 5718 5725 5735 5741 5743 5747 5751 5753 5758 5763 5768 5773 5777 5779 5783 5787 5792 5795 5799 5802 5804 5807 5809 5811 5813 5814 5814 5814 5814 5815 5815 5814 5813 5813 5811 5809 5808 5807 5804 5802 5801 5799
5691 5693 5696 5696 5699 5704 5705 5708 5721 5731 5733 5735 5738 5742 5745 5748 5754 5758 5764 5769 5773 5773 5776 5779 5783 5788 5792 5795 5797 5800 5801 5804 5806 5805 5806 5806 5807 5807 5807 5806 5805 5803 5802 5800 5799 5797 5795 5793 5791
5679 5680 5687 5686 5688 5689 5696 5703 5711 5716 5723 5726 5728 5729 5733 5739 5743 5750 5754 5757 5763 5765 5768 5770 5774 5779 5783 5786 5788 5789 5791 5795 5796 5796 5797 5799 5799 5799 5799 5798 5797 5796 5795 5793 5791 5790 5788 5786 5784
5669 5673 5672 5673 5676 5678 5683 5690 5704 5708 5711 5714 5714 5717 5720 5725 5729 5736 5741 5746 5751 5754 5758 5762 5765 5768 5772 5775 5777 5779 5781 5784 5786 5787 5789 5790 5790 5790 5790 5789 5788 5787 5787 5785 5784 5782 5781 5779 5777
5658 5658 5660 5663 5668 5668 5674 5681 5696 5698 5702 5702 5705 5708 5708 5711 5716 5721 5730 5736 5742 5746 5750 5753 5756 5758 5762 5765 5767 5769 5771 5772 5774 5777 5779 5780 5780 5780 5781 5780 5780 5780 5779 5778 5777 5776 5774 5772 5769
5647 5648 5651 5653 5658 5658 5662 5674 5681 5683 5685 5686 5686 5691 5693 5692 5699 5705 5711 5720 5727 5733 5738 5743 5746 5748 5751 5753 5757 5759 5761 5762 5764 5766 5768 5769 5769 5769 5770 5770 5770 5771 5770 5770 5770 5769 5766 5764 5762